Hourly Data Report for October 31, 2015

All times are specified in Local Standard Time (LST). Add 1 hour to adjust for Daylight Saving Time where and when it is observed.

POND INLET A
NUNAVUT

72°41'22.000" N
77°58'08.000" W
61.60 m
2403206
71095
YIO

Download Data

Hourly Data (October 2015)
Hourly Data Report for October 31, 2015
Temp Definition
°C
Dew Point Temp Definition
°C
Rel Hum Definition
%
Wind Dir Definition
10's deg

Wind Spd Definition
km/h
Visibility Definition
km
Stn Press Definition
kPa
Hmdx Definition


Wind Chill Definition


Weather Definition


TIME
00:00 Legend Double Dagger -16.7 -19.5 79 19 17 16.1 99.82   -26 Snow
01:00 Legend Double Dagger -16.4 -19.0 80 23 18 11.3 99.81   -25 Snow
02:00 Legend Double Dagger -16.1 -18.8 80 26 17 16.1 99.82   -25 LegendNANA
03:00 Legend Double Dagger -17.2 -19.3 84 26 15 16.1 99.83   -26 LegendNANA
04:00 Legend Double Dagger -16.4 -18.7 83 27 13 16.1 99.85   -24 LegendNANA
05:00 Legend Double Dagger -16.9 -19.7 79 20 17 16.1 99.85   -26 Snow
06:00 Legend Double Dagger -16.7 -19.7 78 20 22 16.1 99.87   -27 Snow
07:00 Legend Double Dagger -16.5 -19.8 76 18 26 16.1 99.87   -27 LegendNANA
08:00 Legend Double Dagger -15.7 -19.3 74 20 24 16.1 99.85   -26 LegendNANA
09:00 Legend Double Dagger -15.5 -19.0 75 20 28 16.1 99.87   -26 LegendNANA
10:00 Legend Double Dagger -16.5 -19.5 78 21 32 16.1 99.90   -28 LegendNANA
11:00 Legend Double Dagger -16.6 -19.6 78 20 28 16.1 99.91   -28 LegendNANA
12:00 Legend Double Dagger -17.3 -19.9 81 23 24 16.1 99.91   -28 LegendNANA
13:00 Legend Double Dagger -18.3 -21.1 79 21 22 16.1 99.95   -29 LegendNANA
14:00 Legend Double Dagger -16.8 -20.3 75 23 28 16.1 99.97   -28 LegendNANA
15:00 Legend Double Dagger -14.7 -19.0 70 24 34 16.1 100.00   -26 LegendNANA
16:00 Legend Double Dagger -14.4 -19.3 67 25 32 16.1 100.06   -26 LegendNANA
17:00 Legend Double Dagger -14.5 -18.5 72 26 28 16.1 100.12   -25 LegendNANA
18:00 Legend Double Dagger -14.4 -18.2 73 26 30 16.1 100.14   -25 LegendNANA
19:00 Legend Double Dagger -14.5 -18.8 70 24 22 16.1 100.19   -24 LegendNANA
20:00 Legend Double Dagger -15.1 -18.2 77 25 34 16.1 100.19   -27 LegendNANA
21:00 Legend Double Dagger -15.0 -18.5 75 25 30 16.1 100.21   -26 LegendNANA
22:00 Legend Double Dagger -19.2 -22.2 77 18 22 16.1 100.27   -30 LegendNANA
23:00 Legend Double Dagger -16.6 -19.8 76 22 18 16.1 100.30   -26 LegendNANA

Notes on Data Quality.

Legend

  • E = Estimated
  • M = Missing
  • NA = Not Available
  • ‡ = Partner data that is not subject to review by the National Climate Archives
Date modified: